N0MR Weather Reports


time (UTC)temp
C
wind
direction
speed
KPH
gust
KPH
rain 1hr
cm
rain 24hr
cm
rain mn
cm
humidity
%
barometer
mb
20260902232640 24 227 0.0 4.8 0.00 0.15 0.15 53 1011.2
20260902231640 24 227 0.0 4.8 0.00 0.15 0.15 53 1011.2
20260902230640 25 331 0.0 8.0 0.00 0.15 0.15 51 1011.3
20260902225639 25 331 0.0 8.0 0.00 0.15 0.15 51 1011.3
20260902224639 25 238 3.2 8.0 0.00 0.15 0.15 49 1011.3
20260902223639 25 238 3.2 8.0 0.00 0.15 0.15 49 1011.3
20260902222639 25 220 6.4 11.3 0.00 0.15 0.15 49 1011.2
20260902221639 25 220 6.4 11.3 0.00 0.15 0.15 49 1011.2
20260902220640 26 304 4.8 8.0 0.00 0.15 0.15 46 1011.1
20260902215641 26 304 4.8 8.0 0.00 0.15 0.15 46 1011.1
20260902214650 26 342 3.2 12.9 0.00 0.15 0.15 46 1011.1
20260902212640 26 225 1.6 12.9 0.00 0.15 0.15 49 1011.2
20260902211641 26 98 1.6 8.0 0.00 0.15 0.15 47 1011.0
20260902210640 26 98 1.6 8.0 0.00 0.15 0.15 47 1011.0
20260902205641 26 193 0.0 11.3 0.00 0.15 0.15 50 1011.2
20260902204640 26 193 0.0 11.3 0.00 0.15 0.15 50 1011.2
20260902203644 25 86 1.6 12.9 0.00 0.15 0.15 50 1011.3
20260902202640 25 86 1.6 12.9 0.00 0.15 0.15 50 1011.3
20260902201640 25 86 0.0 9.7 0.00 0.15 0.15 51 1011.5
20260902200640 25 86 0.0 9.7 0.00 0.15 0.15 51 1011.5
20260902195640 25 217 1.6 12.9 0.00 0.15 0.15 51 1011.4
20260902194641 25 217 1.6 12.9 0.00 0.15 0.15 51 1011.4
20260902193641 25 220 6.4 11.3 0.00 0.15 0.15 51 1011.5
20260902192641 25 220 6.4 11.3 0.00 0.15 0.15 51 1011.5
20260902191641 25 220 1.6 12.9 0.00 0.15 0.15 50 1011.6
20260902190641 25 220 1.6 12.9 0.00 0.15 0.15 50 1011.6
20260902185641 25 39 1.6 11.3 0.00 0.15 0.15 51 1011.8
20260902184641 25 39 1.6 11.3 0.00 0.15 0.15 51 1011.8
20260902183641 25 213 0.0 14.5 0.15 0.15 0.15 54 1011.8
20260902182640 23 219 3.2 9.7 0.15 0.15 0.15 56 1012.0
20260902181640 23 219 3.2 9.7 0.15 0.15 0.15 56 1012.0
20260902180640 25 288 0.0 11.3 0.15 0.15 0.15 55 1011.8
20260902175640 25 288 0.0 11.3 0.15 0.15 0.15 55 1011.8
20260902174641 23 240 3.2 9.7 0.00 0.00 0.00 58 1012.1
20260902173641 23 240 3.2 9.7 0.00 0.00 0.00 58 1012.1
20260902172642 23 174 1.6 4.8 0.00 0.00 0.00 60 1012.1
20260902171642 23 174 1.6 4.8 0.00 0.00 0.00 60 1012.1
20260902170642 23 236 0.0 3.2 0.00 0.00 0.00 61 1012.2
20260902165641 23 236 0.0 3.2 0.00 0.00 0.00 61 1012.2
20260902164642 23 294 0.0 8.0 0.00 0.00 0.00 61 1012.3
20260902163641 23 294 0.0 8.0 0.00 0.00 0.00 61 1012.3
20260902162642 23 231 0.0 8.0 0.00 0.00 0.00 61 1012.1
20260902161642 23 231 0.0 8.0 0.00 0.00 0.00 61 1012.1
20260902160642 22 242 0.0 1.6 0.00 0.00 0.00 63 1012.0
20260902155643 22 242 0.0 1.6 0.00 0.00 0.00 63 1012.0
20260902154641 22 289 0.0 3.2 0.00 0.00 0.00 64 1012.1
20260902153642 22 289 0.0 3.2 0.00 0.00 0.00 64 1012.1
20260902152642 21 22 0.0 3.2 0.00 0.00 0.00 69 1012.2
20260902143642 17 38 0.0 0.0 0.00 0.03 0.00 82 1012.6
20260902142642 17 38 0.0 0.0 0.00 0.03 0.00 82 1012.6
20260902135645 16 240 0.0 1.6 0.00 0.03 0.00 88 1012.6
20260902134643 16 240 0.0 1.6 0.00 0.03 0.00 88 1012.6
20260902133644 15 240 0.0 1.6 0.00 0.03 0.00 94 1012.5
20260902132644 15 240 0.0 1.6 0.00 0.03 0.00 94 1012.5
20260902131644 14 240 0.0 0.0 0.00 0.03 0.00 96 1012.3
20260902130643 14 240 0.0 0.0 0.00 0.03 0.00 96 1012.3
20260902125644 13 240 0.0 0.0 0.00 0.03 0.00 96 1012.4
20260902124644 13 240 0.0 0.0 0.00 0.03 0.00 96 1012.4
20260902122644 12 240 0.0 0.0 0.00 0.03 0.00 95 1012.1
20260902121642 12 240 0.0 0.0 0.00 0.03 0.00 95 1012.0
20260902120643 12 240 0.0 0.0 0.00 0.03 0.00 94 1011.9
20260902115644 12 240 0.0 0.0 0.00 0.03 0.00 94 1011.9
20260902114643 12 239 0.0 0.0 0.00 0.03 0.00 94 1011.9
20260902113644 12 239 0.0 0.0 0.00 0.03 0.00 94 1011.9
20260902112645 12 240 0.0 0.0 0.00 0.03 0.00 94 1011.9
20260902111644 12 240 0.0 0.0 0.00 0.03 0.00 94 1011.9
20260902110643 13 240 0.0 0.0 0.00 0.03 0.00 94 1011.9
20260902105643 13 240 0.0 0.0 0.00 0.03 0.00 94 1011.9
20260902104643 13 240 0.0 0.0 0.00 0.03 0.00 94 1012.0
20260902103643 13 240 0.0 0.0 0.00 0.03 0.00 94 1012.0
20260902102644 13 240 0.0 0.0 0.00 0.03 0.00 93 1012.1
20260902101644 13 240 0.0 0.0 0.00 0.03 0.00 93 1012.1
20260902100643 13 240 0.0 0.0 0.00 0.03 0.00 93 1012.3
20260902095643 13 240 0.0 0.0 0.00 0.03 0.00 93 1012.3
20260902094643 13 239 0.0 0.0 0.00 0.03 0.00 92 1012.0
20260902093644 13 239 0.0 0.0 0.00 0.03 0.00 92 1012.0
20260902092643 13 240 0.0 0.0 0.00 0.03 0.00 91 1011.7
20260902091643 13 240 0.0 0.0 0.00 0.03 0.00 91 1011.7
20260902090645 14 239 0.0 0.0 0.00 0.03 0.00 91 1011.4
20260902073645 15 240 0.0 0.0 0.00 0.03 0.00 88 1011.5
20260902072645 15 240 0.0 0.0 0.00 0.03 0.00 88 1011.5
20260902071646 15 240 0.0 0.0 0.00 0.03 0.00 88 1011.6
20260902070646 15 240 0.0 0.0 0.00 0.03 0.00 88 1011.6
20260902065647 15 240 0.0 0.0 0.00 0.03 0.00 88 1011.6
20260902064645 15 240 0.0 0.0 0.00 0.03 0.00 88 1011.6
20260902063646 15 240 0.0 0.0 0.00 0.03 0.00 87 1011.5
20260902062645 15 240 0.0 0.0 0.00 0.03 0.00 87 1011.5
20260902061646 15 240 0.0 1.6 0.00 0.03 0.00 87 1011.5
20260902060649 15 240 0.0 1.6 0.00 0.03 0.00 87 1011.5
20260902055645 15 240 0.0 1.6 0.00 0.03 0.00 86 1011.6
20260902054645 15 239 0.0 3.2 0.00 0.03 0.00 86 1011.6
20260902053645 15 239 0.0 3.2 0.00 0.03 0.00 86 1011.6
20260902052645 15 240 0.0 1.6 0.00 0.03 0.00 86 1012.0
20260902051645 15 240 0.0 1.6 0.00 0.03 0.00 86 1012.0
20260902050646 15 240 0.0 3.2 0.00 0.03 0.03 86 1012.1
20260902045647 15 240 0.0 3.2 0.00 0.03 0.03 86 1012.1
20260902044646 15 240 0.0 3.2 0.00 0.03 0.03 85 1011.9
20260902043645 15 240 0.0 3.2 0.00 0.03 0.03 85 1011.9
20260902042647 16 240 0.0 1.6 0.00 0.03 0.03 84 1011.8
20260902041646 16 240 0.0 1.6 0.00 0.03 0.03 84 1011.8
20260902040646 16 240 0.0 3.2 0.00 0.03 0.03 83 1011.6
20260902035647 16 240 0.0 3.2 0.00 0.03 0.03 83 1011.6
20260902034645 16 240 0.0 0.0 0.00 0.03 0.03 83 1011.6
20260902033647 16 240 0.0 0.0 0.00 0.03 0.03 83 1011.6
20260902032646 16 240 0.0 3.2 0.00 0.03 0.03 82 1011.6
20260902031646 16 240 0.0 3.2 0.00 0.03 0.03 82 1011.6
20260902030649 17 240 0.0 1.6 0.00 0.03 0.03 80 1011.6
20260902025646 17 240 0.0 1.6 0.00 0.03 0.03 80 1011.6
20260902024647 17 240 0.0 3.2 0.00 0.03 0.03 79 1011.4
20260902023646 17 240 0.0 1.6 0.00 0.03 0.03 79 1011.4
20260902022646 17 240 0.0 1.6 0.00 0.03 0.03 79 1011.4
20260902021649 17 240 0.0 3.2 0.00 0.03 0.03 78 1011.2
20260902020646 17 240 0.0 3.2 0.00 0.03 0.03 78 1011.2
20260902015650 17 240 0.0 1.6 0.00 0.03 0.03 79 1011.1
20260902014646 17 240 0.0 1.6 0.00 0.03 0.03 79 1011.1
20260902013648 18 240 0.0 0.0 0.00 0.03 0.03 78 1010.9
20260902012647 18 240 0.0 0.0 0.00 0.03 0.03 78 1010.9
20260902005647 20 240 0.0 0.0 0.00 0.03 0.03 71 1010.6
20260902004646 20 240 0.0 0.0 0.00 0.03 0.03 71 1010.6
20260902003649 21 240 0.0 6.4 0.00 0.03 0.03 65 1010.4
20260902002646 21 240 0.0 6.4 0.00 0.03 0.03 65 1010.4
20260902001647 22 229 0.0 9.7 0.00 0.03 0.03 62 1010.5
20260902000648 22 229 0.0 9.7 0.00 0.03 0.03 62 1010.5
20260901235648 22 242 3.2 9.7 0.00 0.03 0.03 58 1010.4
20260901234647 22 242 3.2 9.7 0.00 0.03 0.03 58 1010.4
20260901233648 23 221 1.6 12.9 0.00 0.03 0.03 56 1010.4